| time (UTC) | temp F | wind direction | speed knots | gust knots | rain 1hr in | rain 24hr in | rain mn in | humidity % | barometer mb |
| 20260508060236 | 41 | 207 | 0.0 | 0.0 | 0.00 | 0.00 | 0.00 | 87 | 1008.3 |
| 20260508055736 | 41 | 215 | 0.0 | 0.0 | 0.00 | 0.00 | 0.00 | 84 | 1008.3 |
| 20260508054229 | 42 | 240 | 0.0 | 0.0 | 0.00 | 0.00 | 0.00 | 83 | 1008.3 |
| 20260508053226 | 42 | 240 | 0.0 | 0.0 | 0.00 | 0.00 | 0.00 | 83 | 1008.3 |
| 20260508052221 | 42 | 252 | 0.0 | 0.0 | 0.00 | 0.00 | 0.00 | 83 | 1008.3 |
| 20260508051222 | 42 | 251 | 0.0 | 0.0 | 0.00 | 0.00 | 0.00 | 82 | 1008.3 |
| 20260508050715 | 42 | 231 | 0.0 | 0.0 | 0.00 | 0.00 | 0.00 | 84 | 1008.3 |
| 20260508045208 | 42 | 206 | 0.0 | 0.0 | 0.00 | 0.00 | 0.00 | 84 | 1008.3 |
| 20260508044208 | 42 | 210 | 0.0 | 1.7 | 0.00 | 0.00 | 0.00 | 85 | 1008.6 |
| 20260508043201 | 42 | 300 | 0.0 | 0.0 | 0.00 | 0.00 | 0.00 | 86 | 1008.6 |
| 20260508042158 | 42 | 240 | 0.0 | 1.7 | 0.00 | 0.00 | 0.00 | 86 | 1008.6 |
| 20260508041652 | 43 | 219 | 0.0 | 0.0 | 0.00 | 0.00 | 0.00 | 86 | 1008.6 |
| 20260508040650 | 43 | 218 | 0.0 | 0.0 | 0.00 | 0.00 | 0.00 | 84 | 1008.6 |
| 20260508035144 | 43 | 248 | 0.0 | 0.0 | 0.00 | 0.00 | 0.00 | 81 | 1008.3 |
| 20260508034143 | 43 | 355 | 0.0 | 0.0 | 0.00 | 0.00 | 0.00 | 82 | 1008.3 |
| 20260508033138 | 43 | 320 | 0.0 | 0.0 | 0.00 | 0.00 | 0.00 | 83 | 1008.3 |
| 20260508032132 | 43 | 243 | 0.0 | 0.0 | 0.00 | 0.00 | 0.00 | 83 | 1008.6 |
| 20260508031128 | 43 | 241 | 0.0 | 0.0 | 0.00 | 0.00 | 0.00 | 81 | 1008.6 |
| 20260508030125 | 43 | 276 | 0.0 | 0.0 | 0.00 | 0.00 | 0.00 | 80 | 1008.3 |
| 20260508025123 | 42 | 280 | 0.0 | 0.0 | 0.00 | 0.00 | 0.00 | 80 | 1008.6 |
| 20260508024121 | 42 | 298 | 0.0 | 0.0 | 0.00 | 0.00 | 0.00 | 82 | 1008.6 |
| 20260508023114 | 42 | 240 | 0.0 | 0.0 | 0.00 | 0.00 | 0.00 | 82 | 1008.3 |
| 20260508022612 | 41 | 226 | 0.0 | 0.0 | 0.00 | 0.00 | 0.00 | 81 | 1008.6 |
| 20260508021104 | 42 | 222 | 0.0 | 0.0 | 0.00 | 0.00 | 0.00 | 82 | 1008.6 |
| 20260508020602 | 42 | 257 | 0.0 | 0.0 | 0.00 | 0.00 | 0.00 | 82 | 1008.6 |
| 20260508015058 | 42 | 208 | 0.0 | 0.0 | 0.00 | 0.00 | 0.00 | 81 | 1008.6 |
| 20260508014053 | 43 | 213 | 0.0 | 0.0 | 0.00 | 0.00 | 0.00 | 80 | 1008.3 |
| 20260508013050 | 43 | 214 | 0.0 | 0.0 | 0.00 | 0.00 | 0.00 | 79 | 1008.3 |
| 20260508012047 | 44 | 223 | 0.0 | 0.0 | 0.00 | 0.00 | 0.00 | 76 | 1008.3 |
| 20260508011042 | 45 | 229 | 0.0 | 0.0 | 0.00 | 0.00 | 0.00 | 74 | 1008.3 |
| 20260508010051 | 45 | 308 | 0.0 | 0.0 | 0.00 | 0.00 | 0.00 | 72 | 1008.3 |
| 20260508005037 | 46 | 302 | 0.0 | 0.0 | 0.00 | 0.00 | 0.00 | 71 | 1007.9 |
| 20260508004035 | 46 | 278 | 0.0 | 1.7 | 0.00 | 0.00 | 0.00 | 69 | 1008.3 |
| 20260508003032 | 46 | 326 | 0.0 | 1.7 | 0.00 | 0.00 | 0.00 | 68 | 1007.9 |
| 20260508002027 | 47 | 251 | 0.0 | 1.7 | 0.00 | 0.00 | 0.00 | 68 | 1007.9 |
| 20260508001028 | 47 | 244 | 0.0 | 1.7 | 0.00 | 0.00 | 0.00 | 67 | 1007.9 |
| 20260508000014 | 47 | 270 | 0.0 | 0.0 | 0.00 | 0.00 | 0.00 | 66 | 1007.6 |
| 20260507235010 | 48 | 236 | 0.0 | 1.7 | 0.00 | 0.00 | 0.00 | 65 | 1007.9 |
| 20260507234507 | 49 | 263 | 0.0 | 1.7 | 0.00 | 0.00 | 0.00 | 64 | 1007.9 |
| 20260507233002 | 49 | 290 | 1.7 | 4.3 | 0.00 | 0.00 | 0.00 | 61 | 1007.6 |
| 20260507231959 | 49 | 66 | 2.6 | 7.0 | 0.00 | 0.00 | 0.00 | 60 | 1007.6 |
| 20260507230953 | 50 | 238 | 3.5 | 4.3 | 0.00 | 0.00 | 0.00 | 57 | 1007.6 |
| 20260507225949 | 50 | 333 | 0.0 | 4.3 | 0.00 | 0.00 | 0.00 | 59 | 1007.6 |
| 20260507225446 | 50 | 255 | 0.0 | 4.3 | 0.00 | 0.00 | 0.00 | 59 | 1007.6 |
| 20260507223946 | 51 | 295 | 0.0 | 4.3 | 0.00 | 0.00 | 0.00 | 56 | 1007.6 |
| 20260507222937 | 52 | 310 | 0.9 | 7.0 | 0.00 | 0.00 | 0.00 | 56 | 1007.6 |
| 20260507221935 | 53 | 328 | 0.9 | 8.7 | 0.00 | 0.00 | 0.00 | 54 | 1007.6 |
| 20260507220933 | 52 | 268 | 1.7 | 7.0 | 0.00 | 0.00 | 0.00 | 51 | 1007.6 |
| 20260507220929 | 53 | 268 | 2.6 | 7.0 | 0.00 | 0.00 | 0.00 | 51 | 1007.6 |
| 20260507214922 | 51 | 146 | 1.7 | 8.7 | 0.00 | 0.00 | 0.00 | 52 | 1007.2 |
| 20260507213920 | 52 | 199 | 1.7 | 8.7 | 0.00 | 0.00 | 0.00 | 53 | 1007.6 |
| 20260507213415 | 53 | 238 | 4.3 | 8.7 | 0.00 | 0.00 | 0.00 | 55 | 1007.6 |
| 20260507211911 | 53 | 298 | 1.7 | 7.0 | 0.00 | 0.00 | 0.00 | 57 | 1007.2 |
| 20260507210905 | 52 | 207 | 0.9 | 11.3 | 0.00 | 0.00 | 0.00 | 52 | 1007.2 |
| 20260507205904 | 51 | 170 | 7.0 | 8.7 | 0.00 | 0.00 | 0.00 | 54 | 1007.2 |
| 20260507204857 | 50 | 266 | 0.0 | 8.7 | 0.00 | 0.00 | 0.00 | 59 | 1007.2 |
| 20260507203855 | 50 | 214 | 1.7 | 8.7 | 0.00 | 0.00 | 0.00 | 62 | 1007.6 |
| 20260507202850 | 50 | 243 | 0.9 | 7.0 | 0.00 | 0.00 | 0.00 | 62 | 1007.6 |
| 20260507202347 | 51 | 221 | 0.9 | 7.0 | 0.00 | 0.00 | 0.00 | 63 | 1007.6 |
| 20260507200840 | 53 | 192 | 4.3 | 13.0 | 0.00 | 0.00 | 0.00 | 60 | 1007.2 |
| 20260507195838 | 54 | 221 | 2.6 | 11.3 | 0.00 | 0.00 | 0.00 | 57 | 1007.6 |
| 20260507195338 | 54 | 220 | 0.0 | 11.3 | 0.00 | 0.00 | 0.00 | 55 | 1007.2 |
| 20260507194833 | 54 | 206 | 3.5 | 8.7 | 0.00 | 0.00 | 0.00 | 52 | 1007.2 |
| 20260507192824 | 53 | 187 | 4.3 | 7.0 | 0.00 | 0.00 | 0.00 | 55 | 1007.2 |
| 20260507191821 | 54 | 245 | 2.6 | 7.0 | 0.00 | 0.00 | 0.00 | 51 | 1007.2 |
| 20260507190818 | 53 | 295 | 3.5 | 13.0 | 0.00 | 0.00 | 0.00 | 58 | 1007.2 |
| 20260507190313 | 53 | 156 | 2.6 | 11.3 | 0.00 | 0.00 | 0.00 | 52 | 1007.2 |
| 20260507184808 | 52 | 251 | 2.6 | 8.7 | 0.00 | 0.00 | 0.00 | 52 | 1007.2 |
| 20260507183806 | 52 | 3 | 4.3 | 7.0 | 0.00 | 0.00 | 0.00 | 57 | 1007.6 |
| 20260507182800 | 51 | 274 | 1.7 | 8.7 | 0.00 | 0.00 | 0.00 | 56 | 1007.2 |
| 20260507181758 | 51 | 300 | 1.7 | 8.7 | 0.00 | 0.00 | 0.00 | 56 | 1007.6 |
| 20260507180751 | 51 | 256 | 1.7 | 8.7 | 0.00 | 0.00 | 0.00 | 58 | 1007.6 |
| 20260507175748 | 52 | 332 | 6.1 | 11.3 | 0.00 | 0.00 | 0.00 | 55 | 1007.2 |
| 20260507174744 | 52 | 189 | 7.8 | 11.3 | 0.00 | 0.00 | 0.00 | 55 | 1007.2 |
| 20260507173741 | 52 | 12 | 5.2 | 11.3 | 0.00 | 0.00 | 0.00 | 56 | 1007.2 |
| 20260507172736 | 52 | 276 | 0.9 | 20.0 | 0.00 | 0.00 | 0.00 | 54 | 1006.9 |
| 20260507172233 | 51 | 290 | 2.6 | 13.0 | 0.00 | 0.00 | 0.00 | 56 | 1007.2 |
| 20260507170727 | 52 | 302 | 1.7 | 11.3 | 0.00 | 0.00 | 0.00 | 56 | 1006.9 |
| 20260507165725 | 52 | 238 | 6.1 | 13.0 | 0.00 | 0.00 | 0.00 | 56 | 1007.2 |
| 20260507164722 | 52 | 288 | 2.6 | 8.7 | 0.00 | 0.00 | 0.00 | 56 | 1006.9 |
| 20260507164219 | 52 | 293 | 3.5 | 13.0 | 0.00 | 0.00 | 0.00 | 57 | 1007.2 |
| 20260507162710 | 52 | 226 | 7.0 | 14.8 | 0.00 | 0.00 | 0.00 | 57 | 1007.2 |
| 20260507162209 | 52 | 87 | 2.6 | 14.8 | 0.00 | 0.00 | 0.00 | 54 | 1007.2 |
| 20260507160703 | 51 | 277 | 4.3 | 14.8 | 0.00 | 0.00 | 0.00 | 58 | 1007.2 |
| 20260507155659 | 51 | 209 | 4.3 | 14.8 | 0.00 | 0.00 | 0.00 | 58 | 1007.2 |
| 20260507154656 | 52 | 228 | 9.6 | 14.8 | 0.00 | 0.01 | 0.00 | 60 | 1007.2 |
| 20260507153655 | 51 | 165 | 5.2 | 14.8 | 0.00 | 0.01 | 0.00 | 60 | 1007.2 |
| 20260507153148 | 51 | 198 | 1.7 | 14.8 | 0.00 | 0.02 | 0.00 | 66 | 1007.2 |
| 20260507151644 | 51 | 240 | 5.2 | 14.8 | 0.00 | 0.02 | 0.00 | 64 | 1007.2 |
| 20260507150639 | 51 | 200 | 3.5 | 13.0 | 0.00 | 0.02 | 0.00 | 63 | 1007.2 |
| 20260507145635 | 51 | 223 | 4.3 | 20.0 | 0.00 | 0.02 | 0.00 | 65 | 1007.2 |
| 20260507144631 | 51 | 246 | 3.5 | 13.0 | 0.00 | 0.04 | 0.00 | 63 | 1006.9 |
| 20260507143630 | 51 | 106 | 3.5 | 11.3 | 0.00 | 0.04 | 0.00 | 66 | 1007.2 |
| 20260507142624 | 51 | 1 | 3.5 | 11.3 | 0.00 | 0.05 | 0.00 | 65 | 1007.2 |
| 20260507142122 | 51 | 233 | 1.7 | 8.7 | 0.00 | 0.05 | 0.00 | 65 | 1007.2 |
| 20260507140615 | 50 | 244 | 5.2 | 13.0 | 0.00 | 0.06 | 0.00 | 65 | 1007.2 |
| 20260507135613 | 50 | 210 | 4.3 | 7.0 | 0.00 | 0.06 | 0.00 | 64 | 1007.2 |
| 20260507134621 | 50 | 236 | 2.6 | 13.0 | 0.00 | 0.08 | 0.00 | 66 | 1007.2 |
| 20260507133605 | 49 | 242 | 1.7 | 11.3 | 0.00 | 0.09 | 0.00 | 66 | 1007.2 |
| 20260507132600 | 49 | 244 | 1.7 | 11.3 | 0.00 | 0.09 | 0.00 | 67 | 1007.2 |
| 20260507131557 | 49 | 275 | 3.5 | 11.3 | 0.00 | 0.11 | 0.00 | 68 | 1007.2 |
| 20260507130551 | 49 | 128 | 2.6 | 8.7 | 0.00 | 0.13 | 0.00 | 67 | 1007.6 |
| 20260507125549 | 48 | 187 | 2.6 | 8.7 | 0.00 | 0.13 | 0.00 | 68 | 1007.2 |
| 20260507124544 | 47 | 158 | 1.7 | 11.3 | 0.00 | 0.14 | 0.00 | 67 | 1007.2 |
| 20260507123542 | 47 | 355 | 2.6 | 11.3 | 0.00 | 0.14 | 0.00 | 68 | 1007.2 |
| 20260507122537 | 46 | 214 | 6.1 | 13.0 | 0.00 | 0.14 | 0.00 | 70 | 1007.2 |
| 20260507121532 | 46 | 218 | 3.5 | 11.3 | 0.00 | 0.14 | 0.00 | 70 | 1007.2 |
| 20260507120535 | 45 | 177 | 3.5 | 14.8 | 0.00 | 0.14 | 0.00 | 71 | 1007.2 |
| 20260507120531 | 45 | 217 | 6.1 | 11.3 | 0.00 | 0.14 | 0.00 | 70 | 1007.2 |
| 20260507114521 | 44 | 223 | 5.2 | 11.3 | 0.00 | 0.14 | 0.00 | 73 | 1007.2 |
| 20260507113523 | 43 | 241 | 1.7 | 14.8 | 0.00 | 0.14 | 0.00 | 74 | 1007.2 |
| 20260507112522 | 42 | 211 | 4.3 | 13.0 | 0.00 | 0.15 | 0.00 | 79 | 1007.2 |
| 20260507112518 | 43 | 43 | 1.7 | 13.0 | 0.00 | 0.14 | 0.00 | 76 | 1007.2 |
| 20260507111007 | 43 | 190 | 2.6 | 13.0 | 0.00 | 0.17 | 0.00 | 79 | 1007.2 |
| 20260507110004 | 43 | 241 | 2.6 | 8.7 | 0.00 | 0.17 | 0.00 | 78 | 1007.2 |
| 20260507104457 | 43 | 124 | 0.9 | 11.3 | 0.00 | 0.17 | 0.00 | 79 | 1006.9 |
| 20260507103454 | 43 | 264 | 5.2 | 8.7 | 0.00 | 0.17 | 0.00 | 80 | 1006.9 |
| 20260507102449 | 43 | 106 | 1.7 | 7.0 | 0.00 | 0.17 | 0.00 | 83 | 1006.6 |
| 20260507101447 | 43 | 172 | 1.7 | 8.7 | 0.00 | 0.18 | 0.00 | 85 | 1006.6 |
| 20260507100442 | 43 | 223 | 0.0 | 8.7 | 0.00 | 0.18 | 0.00 | 85 | 1006.6 |
| 20260507095437 | 44 | 201 | 0.0 | 4.3 | 0.00 | 0.18 | 0.00 | 85 | 1006.1 |
| 20260507094934 | 44 | 218 | 2.6 | 7.0 | 0.00 | 0.18 | 0.00 | 86 | 1006.1 |
| 20260507093429 | 44 | 191 | 5.2 | 8.7 | 0.00 | 0.18 | 0.00 | 89 | 1006.6 |
| 20260507092427 | 44 | 212 | 1.7 | 8.7 | 0.00 | 0.18 | 0.00 | 92 | 1006.6 |
| 20260507091437 | 44 | 208 | 1.7 | 7.0 | 0.00 | 0.18 | 0.00 | 95 | 1006.9 |
| 20260507090419 | 44 | 176 | 2.6 | 11.3 | 0.00 | 0.18 | 0.00 | 96 | 1006.6 |
| 20260507085416 | 43 | 200 | 1.7 | 4.3 | 0.00 | 0.18 | 0.00 | 97 | 1006.6 |
| 20260507084911 | 43 | 176 | 1.7 | 4.3 | 0.00 | 0.18 | 0.00 | 97 | 1006.6 |
| 20260507083408 | 43 | 178 | 0.0 | 4.3 | 0.00 | 0.18 | 0.00 | 97 | 1006.1 |
| 20260507082402 | 43 | 196 | 0.9 | 4.3 | 0.00 | 0.18 | 0.00 | 97 | 1006.1 |
| 20260507081400 | 43 | 235 | 0.0 | 8.7 | 0.00 | 0.18 | 0.00 | 97 | 1006.1 |
| 20260507080855 | 43 | 242 | 0.0 | 7.0 | 0.00 | 0.18 | 0.00 | 97 | 1006.6 |
| 20260507075351 | 43 | 239 | 0.0 | 4.3 | 0.00 | 0.18 | 0.00 | 97 | 1006.6 |
| 20260507074348 | 43 | 197 | 4.3 | 7.0 | 0.00 | 0.18 | 0.00 | 97 | 1006.6 |
| 20260507073345 | 43 | 160 | 0.0 | 4.3 | 0.00 | 0.18 | 0.00 | 96 | 1006.9 |
| 20260507072340 | 44 | 160 | 0.0 | 7.0 | 0.00 | 0.18 | 0.00 | 95 | 1006.6 |
| 20260507071338 | 44 | 263 | 3.5 | 7.0 | 0.00 | 0.18 | 0.00 | 95 | 1006.9 |
| 20260507070333 | 44 | 185 | 0.0 | 4.3 | 0.00 | 0.18 | 0.00 | 94 | 1006.9 |
| 20260507065328 | 44 | 210 | 1.7 | 8.7 | 0.00 | 0.18 | 0.00 | 94 | 1006.9 |
| 20260507064324 | 44 | 195 | 1.7 | 4.3 | 0.00 | 0.18 | 0.00 | 94 | 1006.9 |
| 20260507063323 | 44 | 210 | 0.0 | 4.3 | 0.00 | 0.18 | 0.00 | 94 | 1006.9 |
| 20260507062320 | 44 | 253 | 0.9 | 4.3 | 0.00 | 0.18 | 0.00 | 94 | 1006.9 |
| 20260507061313 | 44 | 176 | 0.0 | 4.3 | 0.00 | 0.18 | 0.00 | 93 | 1006.9 |